{"data":{"norad_id":63294,"intl_designator":"2025-055D","name":"2025-055D","alt_names":[],"object_type":"PAYLOAD","status":"ACTIVE","operator":null,"country":"PRC","launch_date":"2025-03-17","launch_site_code":"JSC","launch_vehicle":null,"mission":null,"orbit_class":"UNKNOWN","rcs_meters":null,"size_class":null,"mass_kg":null,"dimensions":null,"purposes":[],"wikipedia_slug":null,"has_3d_model":false,"image_url":null,"decayed_at":null,"tle_current":{"epoch":"2026-09-22T23:03:03.951360Z","epoch_age_seconds":96052,"freshness":"FRESH","line1":"1 63294U 25055D   26265.96046240  .00006322  00000+0  32909-3 0  9991","line2":"2 63294  97.6636  46.7765 0009054 142.5030 217.6835 15.16354070 83837","mean_motion":15.1635407,"eccentricity":0.0009054,"inclination_deg":97.6636,"raan_deg":46.7765,"arg_perigee_deg":142.503,"mean_anomaly_deg":217.6835,"bstar":0.00032909,"rev_number":8383,"period_min":94.964627885359,"perigee_km":510.62803870787,"apogee_km":523.11351879363,"semimajor_km":6895.0077787508,"source":"CELESTRAK","updated_at":"2026-09-23T09:00:21.957071Z"}}}